Home   Weather   Livermore   Past weeks
Flag for USA

Past Weather in Livermore, California, USA — Yesterday and Last 2 Weeks

Now
43 °F

Clear.


Feels Like: 43 °F
Forecast: 63 / 41 °F
Wind: No wind

Location: Livermore Municipal Airport

Current Time: Apr 3, 2020 at 4:12:00 am

Latest Report: Apr 3, 2020 at 2:53 am


Visibility: 10 mi

Pressure: 30.07 "Hg

Humidity: 86%

Dew Point: 39 °F

Location of LivermoreLocation

Past Weather in Livermore — Graph

°F

Livermore Temperature Yesterday

Maximum temperature yesterday: 65 °F (at 2:53 pm)
Minimum temperature yesterday: 39 °F (at 3:53 am)
Average temperature yesterday: 51 °F

High & Low Weather Summary for the Past Weeks

 TemperatureHumidityPressure
High67 °F (Mar 31, 2:53 pm)100% (Mar 20, 11:53 pm)30.32 "Hg (Mar 20, 11:53 pm)
Low35 °F (Mar 26, 6:53 am)22% (Apr 2, 2:53 pm)29.91 "Hg (Mar 19, 2:53 am)
Average51 °F76%30.11 "Hg
* Reported Mar 19 2:36 am — Apr 3 2:53 am, Livermore. Weather by CustomWeather, © 2020

Note: Actual official high and low records may vary slightly from our data, if they occured in-between our weather recording intervals... More about our weather records

Livermore Weather History for the Previous 24 Hours

Scroll right to see more
 ConditionsComfort  
Time TempWeatherWind HumidityBarometerVisibility
2:53 am
Fri, Apr 3
43 °FClear.No wind86%30.07 "Hg10 mi
1:53 am44 °FClear.No wind82%30.08 "Hg10 mi
12:53 am44 °FClear.No wind82%30.09 "Hg10 mi
11:53 pm
Thu, Apr 2
47 °FClear.No wind77%30.09 "Hg10 mi
10:53 pm48 °FClear.No wind77%30.09 "Hg10 mi
9:53 pm49 °FClear.6 mph74%30.08 "Hg10 mi
8:53 pm50 °FClear.5 mph66%30.07 "Hg10 mi
7:53 pm53 °FClear.3 mph55%30.06 "Hg10 mi
6:53 pm57 °FSunny.9 mph39%30.05 "Hg10 mi
5:53 pm60 °FSunny.14 mph36%30.05 "Hg10 mi
3:53 pm64 °FSunny.18 mph34%30.03 "Hg10 mi
2:53 pm65 °FSunny.3 mph22%30.04 "Hg10 mi
1:53 pm63 °FSunny.5 mph24%30.05 "Hg10 mi
12:53 pm63 °FSunny.13 mph28%30.06 "Hg10 mi
11:53 am60 °FSunny.6 mph32%30.08 "Hg10 mi
10:53 am57 °FSunny.7 mph36%30.09 "Hg10 mi
9:53 am56 °FSunny.12 mph32%30.08 "Hg10 mi
8:53 am50 °FSunny.3 mph57%30.09 "Hg10 mi
7:53 am41 °FSunny.No wind86%30.08 "Hg10 mi
6:53 am39 °FSunny.No wind86%30.06 "Hg10 mi
5:53 am39 °FClear.No wind89%30.05 "Hg10 mi
4:53 am39 °FClear.No wind86%30.04 "Hg10 mi
Weather by CustomWeather, © 2020

See weather overview

Advertising